Szeged, Hungary

2:50 PM CET on December 11, 2017 (GMT +0100)
Szeged

Weather History for LHUD - October, 2012

Change the Weather History Date:

Saturday, October 20, 2012

  Actual Average (LRAR) Record (LRAR)
Temperature  
Mean Temperature 60 °F -  
Max Temperature 77 °F 54 °F 79 °F (2012)
Min Temperature 42 °F 37 °F 33 °F (1997)
Degree Days  
Heating Degree Days 6    
Growing Degree Days 10 (Base 50)    
Moisture  
Dew Point 49 °F    
Average Humidity 70    
Maximum Humidity 100    
Minimum Humidity 32    
Precipitation  
Precipitation 0.00 in 0.05 in - ()
Sea Level Pressure  
Sea Level Pressure 30.12 in    
Wind  
Wind Speed 5 mph ()    
Max Wind Speed 9 mph    
Max Gust Speed -    
Visibility 9.5 miles    
Events Fog    
Averages and records for this station are not official NWS values.
T = Trace of Precipitation, MM = Missing Value Source: Averaged Metar Reports

Daily Weather History Graph

Daily Weather History Graph

Search for Another Location

Airport or City:

Trip Planner

Search our weather history database for the weather conditions in past years. The results will help you decide how hot, cold, wet, or windy it might be!

Date:

Astronomy

Oct. 20, 2012 Rise Set
Actual Time 7:03 AM CEST 5:43 PM CEST
Civil Twilight 6:33 AM CEST 6:14 PM CEST
Nautical Twilight 5:58 AM CEST 6:49 PM CEST
Astronomical Twilight 5:23 AM CEST 7:24 PM CEST
Moon 12:35 PM CEST (10/20) 9:59 PM CEST (10/20)
Length of Visible Light 11h 41m
Length of Day
10h 40m
Waxing Crescent, 31% of the Moon is Illuminated
Oct 20
Waxing Crescent
Oct 22
First Quarter
Oct 29
Full
Nov 7
Last Quarter
Nov 13
New

Hourly Weather History & Observations

Time (CEST) Temp. Windchill Dew Point Humidity Pressure Visibility Wind Dir Wind Speed Gust Speed Precip Events Conditions
12:45 AM 51.8 °F - 48.2 °F 88% 30.12 in - SSE 4.6 mph - N/A   Clear
1:45 AM 50.0 °F - 48.2 °F 94% 30.12 in - SE 3.5 mph - N/A   Clear
2:00 AM 51 °F - 48 °F 85% 30.14 in 9 mi SE 4.5 mph - -   Partly Cloudy
2:45 AM 50.0 °F - 46.4 °F 87% 30.12 in - SE 4.6 mph - N/A   Clear
3:45 AM 48.2 °F - 46.4 °F 93% 30.12 in - SSE 3.5 mph - N/A   Clear
4:45 AM 46.4 °F - 44.6 °F 93% 30.12 in 5.0 mi SE 2.3 mph - N/A Fog Fog
5:45 AM 44.6 °F 43.1 °F 44.6 °F 100% 30.12 in 6.2 mi SE 3.5 mph - N/A Fog Shallow Fog
6:15 AM 46.4 °F 43.5 °F 46.4 °F 100% 30.12 in 6.2 mi SE 5.8 mph - N/A Fog Shallow Fog
6:45 AM 46.4 °F 43.5 °F 46.4 °F 100% 30.12 in - SE 5.8 mph - N/A   Clear
7:15 AM 46.4 °F 42.9 °F 46.4 °F 100% 30.12 in - SE 6.9 mph - N/A   Clear
7:45 AM 48.2 °F - 46.4 °F 93% 30.12 in - SE 6.9 mph - N/A   Clear
8:00 AM 49 °F - 47 °F 89% 30.12 in 9 mi SE 6.7 mph - -   Partly Cloudy
8:15 AM 51.8 °F - 48.2 °F 88% 30.12 in - SE 8.1 mph - N/A   Clear
8:45 AM 53.6 °F - 48.2 °F 82% 30.12 in - SE 5.8 mph - N/A   Clear
9:15 AM 57.2 °F - 50.0 °F 77% 30.12 in - SSE 5.8 mph - N/A   Clear
9:45 AM 57.2 °F - 48.2 °F 72% 30.15 in - SSE 6.9 mph - N/A   Clear
10:15 AM 60.8 °F - 50.0 °F 68% 30.15 in - SSE 8.1 mph - N/A   Clear
10:45 AM 62.6 °F - 50.0 °F 63% 30.15 in - SSE 6.9 mph - N/A   Clear
11:15 AM 64.4 °F - 51.8 °F 64% 30.15 in - SSE 5.8 mph - N/A   Clear
11:45 AM 66.2 °F - 51.8 °F 60% 30.15 in - SSE 4.6 mph - N/A   Clear
12:15 PM 69.8 °F - 51.8 °F 53% 30.12 in - SSE 5.8 mph - N/A   Clear
12:45 PM 71.6 °F - 51.8 °F 50% 30.12 in - SSE 5.8 mph - N/A   Clear
1:15 PM 73.4 °F - 51.8 °F 47% 30.12 in - SSE 4.6 mph - N/A   Clear
1:45 PM 75.2 °F - 51.8 °F 44% 30.12 in - South 4.6 mph - N/A   Clear
2:00 PM 75 °F - 51 °F 32% 30.10 in 19 mi South 4.5 mph - -   Partly Cloudy
2:15 PM 75.2 °F - 51.8 °F 44% 30.09 in - South 5.8 mph - N/A   Clear
2:45 PM 75.2 °F - 50.0 °F 41% 30.09 in - SE 5.8 mph - N/A   Clear
3:15 PM 77.0 °F - 50.0 °F 39% 30.09 in - SE 5.8 mph - N/A   Clear
3:45 PM 77.0 °F - 51.8 °F 41% 30.09 in - South 3.5 mph - N/A   Clear
4:15 PM 77.0 °F - 50.0 °F 39% 30.09 in - SE 4.6 mph - N/A   Clear
4:45 PM 75.2 °F - 51.8 °F 44% 30.09 in - SE 2.3 mph - N/A   Clear
5:15 PM 73.4 °F - 53.6 °F 50% 30.09 in - SSE 2.3 mph - N/A   Clear
5:45 PM 69.8 °F - 51.8 °F 53% 30.09 in - SSE 2.3 mph - N/A   Clear
6:15 PM 62.6 °F - 51.8 °F 68% 30.09 in - SE 2.3 mph - N/A   Clear
6:45 PM 62.6 °F - 51.8 °F 68% 30.12 in - East 2.3 mph - N/A   Clear
7:15 PM 59.0 °F - 51.8 °F 77% 30.12 in - Calm Calm - N/A   Clear
7:45 PM 57.2 °F - 50.0 °F 77% 30.12 in - East 4.6 mph - N/A   Clear
8:00 PM 57 °F - 50 °F 72% 30.11 in 12 mi East 4.5 mph - -   Partly Cloudy
8:15 PM 55.4 °F - 51.8 °F 88% 30.12 in - East 4.6 mph - N/A   Clear
8:45 PM 57.2 °F - 50.0 °F 77% 30.12 in - East 6.9 mph - N/A   Clear
9:15 PM 59.0 °F - 50.0 °F 72% 30.12 in - ESE 5.8 mph - N/A   Clear
9:45 PM 59.0 °F - 50.0 °F 72% 30.12 in - ESE 5.8 mph - N/A   Clear
10:45 PM 57.2 °F - 48.2 °F 72% 30.12 in - SE 9.2 mph - N/A   Clear
11:45 PM 53.6 °F - 46.4 °F 77% 30.15 in - SSE 6.9 mph - N/A   Clear